When you browse on this site, cookies collect data to enhance your experience and personalize the content and advertising you see.
Visit our Privacy Policy to learn more. By continuing to use the site, you agree to this use of cookies and data.
  • In Latvia
  • List of Countries
  • For 7 days
  • Water Temperature
  • Satellite Maps
  • Weather Map
  • Weather Widgets
  • user-avatar
    Login

    Hourly Weather Maripasoula

    Today, 20 April, Saturday

    Time Temperature Precipitation Wind Pressure Humidity
    00:00 +23°C° 0.1 mm 0 mps 747 mmHg 99%
    01:00 +23°C° 0.1 mm 0 mps 747 mmHg 99%
    02:00 +23°C° 0 mm 0 mps 747 mmHg 99%
    03:00 +23°C° 0.1 mm 0 mps 747 mmHg 99%
    04:00 +23°C° 0.1 mm 0 mps 747 mmHg 99%
    05:00 +22°C° 0.1 mm 0 mps 747 mmHg 99%
    06:00 +25°C° 0 mm 1 mps 747 mmHg 96%
    07:00 +26°C° 0 mm 1 mps 748 mmHg 92%
    08:00 +27°C° 0 mm 1 mps 748 mmHg 89%
    09:00 +29°C° 0.2 mm 1 mps 748 mmHg 81%
    10:00 +31°C° 0.2 mm 2 mps 748 mmHg 73%
    11:00 +32°C° 0.2 mm 2 mps 748 mmHg 65%
    12:00 +32°C° 0.9 mm 2 mps 747 mmHg 70%
    13:00 +31°C° 0.9 mm 2 mps 746 mmHg 75%
    14:00 +31°C° 0.9 mm 2 mps 745 mmHg 80%
    15:00 +30°C° 1.1 mm 1 mps 745 mmHg 85%
    16:00 +29°C° 1.1 mm 1 mps 745 mmHg 90%
    17:00 +28°C° 1.1 mm 1 mps 745 mmHg 95%
    18:00 +27°C° 0.3 mm 1 mps 745 mmHg 96%
    19:00 +26°C° 0.3 mm 1 mps 746 mmHg 96%
    20:00 +26°C° 0.3 mm 1 mps 747 mmHg 97%
    21:00 +25°C° 0 mm 1 mps 747 mmHg 98%
    22:00 +25°C° 0 mm 1 mps 747 mmHg 98%
    23:00 +24°C° 0 mm 1 mps 748 mmHg 98%

    Tomorrow, 21 April, Sunday

    Time Temperature Precipitation Wind Pressure Humidity
    00:00 +24°C° 0 mm 1 mps 747 mmHg 98%
    01:00 +22°C° 0 mm 0 mps 747 mmHg 99%
    02:00 +21°C° 0 mm 0 mps 746 mmHg 99%
    03:00 +22°C° 0.1 mm 0 mps 746 mmHg 99%
    04:00 +22°C° 0.1 mm 0 mps 746 mmHg 98%
    05:00 +22°C° 0.1 mm 0 mps 747 mmHg 98%
    06:00 +22°C° 0.1 mm 0 mps 747 mmHg 97%
    07:00 +25°C° 0.1 mm 1 mps 747 mmHg 96%
    08:00 +25°C° 0.1 mm 1 mps 748 mmHg 95%
    09:00 +28°C° 0.1 mm 1 mps 748 mmHg 82%
    10:00 +30°C° 0.1 mm 1 mps 748 mmHg 69%
    11:00 +32°C° 0.1 mm 1 mps 748 mmHg 56%
    12:00 +33°C° 0 mm 1 mps 747 mmHg 56%
    13:00 +33°C° 0 mm 1 mps 746 mmHg 56%
    14:00 +33°C° 0 mm 1 mps 745 mmHg 56%
    15:00 +32°C° 0.2 mm 1 mps 745 mmHg 64%
    16:00 +31°C° 0.2 mm 1 mps 744 mmHg 72%
    17:00 +29°C° 0.2 mm 1 mps 744 mmHg 80%
    18:00 +28°C° 0.1 mm 1 mps 745 mmHg 85%
    19:00 +27°C° 0.1 mm 1 mps 745 mmHg 89%
    20:00 +25°C° 0.1 mm 1 mps 746 mmHg 94%
    21:00 +25°C° 0 mm 1 mps 746 mmHg 95%
    22:00 +24°C° 0 mm 1 mps 747 mmHg 96%
    23:00 +24°C° 0 mm 1 mps 747 mmHg 97%

    Day after tomorrow, 22 April, Monday

    Time Temperature Precipitation Wind Pressure Humidity
    00:00 +24°C° 0 mm 1 mps 746 mmHg 97%
    01:00 +23°C° 0 mm 1 mps 746 mmHg 98%
    02:00 +21°C° 0 mm 0 mps 745 mmHg 99%
    03:00 +21°C° 0 mm 0 mps 745 mmHg 99%
    04:00 +21°C° 0 mm 0 mps 745 mmHg 99%
    05:00 +21°C° 0 mm 0 mps 746 mmHg 99%
    06:00 +24°C° 0 mm 1 mps 746 mmHg 93%
    07:00 +26°C° 0 mm 1 mps 747 mmHg 86%
    08:00 +27°C° 0 mm 1 mps 747 mmHg 80%
    09:00 +29°C° 0 mm 1 mps 747 mmHg 70%
    10:00 +32°C° 0 mm 1 mps 747 mmHg 61%
    11:00 +34°C° 0 mm 1 mps 746 mmHg 51%
    12:00 +34°C° 0 mm 1 mps 745 mmHg 52%
    13:00 +33°C° 0 mm 1 mps 744 mmHg 53%
    14:00 +33°C° 0 mm 1 mps 743 mmHg 55%
    15:00 +32°C° 0.7 mm 1 mps 743 mmHg 67%
    16:00 +30°C° 0.7 mm 1 mps 743 mmHg 80%
    17:00 +28°C° 0.7 mm 1 mps 743 mmHg 92%
    18:00 +27°C° 0.8 mm 1 mps 744 mmHg 94%
    19:00 +26°C° 0.8 mm 1 mps 745 mmHg 96%
    20:00 +25°C° 0.8 mm 1 mps 745 mmHg 97%
    21:00 +25°C° 0 mm 1 mps 746 mmHg 98%
    22:00 +25°C° 0 mm 1 mps 746 mmHg 98%
    23:00 +25°C° 0 mm 1 mps 746 mmHg 99%

    23 April, Tuesday

    Time Temperature Precipitation Wind Pressure Humidity
    00:00 +24°C° 0 mm 1 mps 746 mmHg 99%
    01:00 +22°C° 0 mm 0 mps 745 mmHg 99%
    02:00 +22°C° 0 mm 0 mps 744 mmHg 99%
    03:00 +22°C° 0 mm 0 mps 745 mmHg 99%
    04:00 +22°C° 0 mm 0 mps 745 mmHg 99%
    05:00 +22°C° 0 mm 0 mps 745 mmHg 99%
    06:00 +23°C° 0 mm 0 mps 746 mmHg 96%
    07:00 +26°C° 0 mm 1 mps 747 mmHg 94%
    08:00 +27°C° 0 mm 1 mps 747 mmHg 91%
    09:00 +28°C° 0.8 mm 1 mps 747 mmHg 90%
    10:00 +29°C° 0.8 mm 1 mps 747 mmHg 88%
    11:00 +30°C° 0.8 mm 1 mps 746 mmHg 87%
    12:00 +29°C° 2 mm 1 mps 745 mmHg 90%
    13:00 +28°C° 2 mm 1 mps 745 mmHg 93%
    14:00 +27°C° 2 mm 1 mps 744 mmHg 96%
    15:00 +26°C° 0.4 mm 1 mps 744 mmHg 96%
    16:00 +26°C° 0.4 mm 1 mps 744 mmHg 96%
    17:00 +26°C° 0.4 mm 1 mps 744 mmHg 96%
    18:00 +26°C° 0 mm 1 mps 744 mmHg 97%
    19:00 +25°C° 0 mm 1 mps 745 mmHg 97%
    20:00 +25°C° 0 mm 1 mps 745 mmHg 98%
    21:00 +25°C° 0 mm 1 mps 746 mmHg 98%
    22:00 +25°C° 0 mm 1 mps 746 mmHg 99%
    23:00 +23°C° 0 mm 0 mps 746 mmHg 99%

    24 April, Wednesday

    Time Temperature Precipitation Wind Pressure Humidity
    00:00 +23°C° 0.1 mm 0 mps 746 mmHg 99%
    01:00 +23°C° 0.1 mm 0 mps 745 mmHg 99%
    02:00 +23°C° 0.1 mm 0 mps 745 mmHg 99%
    03:00 +23°C° 0.1 mm 0 mps 745 mmHg 99%
    04:00 +23°C° 0.1 mm 0 mps 745 mmHg 99%
    05:00 +23°C° 0.1 mm 0 mps 745 mmHg 99%
    06:00 +23°C° 0.2 mm 0 mps 746 mmHg 98%
    07:00 +24°C° 0.2 mm 0 mps 747 mmHg 98%
    08:00 +26°C° 0.2 mm 1 mps 747 mmHg 97%
    09:00 +27°C° 0.4 mm 1 mps 747 mmHg 94%
    10:00 +28°C° 0.4 mm 1 mps 747 mmHg 92%
    11:00 +28°C° 0.4 mm 1 mps 747 mmHg 90%
    12:00 +29°C° 0.6 mm 1 mps 746 mmHg 89%
    13:00 +29°C° 0.6 mm 1 mps 745 mmHg 89%
    14:00 +29°C° 0.6 mm 1 mps 744 mmHg 89%
    15:00 +28°C° 0.6 mm 1 mps 745 mmHg 91%
    16:00 +28°C° 0.6 mm 1 mps 745 mmHg 94%
    17:00 +27°C° 0.6 mm 1 mps 745 mmHg 97%
    18:00 +27°C° 0.5 mm 1 mps 745 mmHg 98%
    19:00 +26°C° 0.5 mm 1 mps 746 mmHg 98%
    20:00 +25°C° 0.5 mm 1 mps 747 mmHg 99%
    21:00 +25°C° 0.6 mm 1 mps 747 mmHg 99%
    22:00 +25°C° 0.6 mm 1 mps 747 mmHg 99%
    23:00 +25°C° 0.6 mm 1 mps 747 mmHg 99%

    25 April, Thursday

    Time Temperature Precipitation Wind Pressure Humidity
    00:00 +25°C° 0 mm 1 mps 747 mmHg 99%
    01:00 +23°C° 0 mm 0 mps 746 mmHg 99%
    02:00 +22°C° 0 mm 0 mps 746 mmHg 99%
    03:00 +22°C° 0 mm 0 mps 746 mmHg 99%
    04:00 +22°C° 0 mm 0 mps 746 mmHg 99%
    05:00 +23°C° 0 mm 0 mps 747 mmHg 99%
    06:00 +25°C° 0 mm 1 mps 747 mmHg 97%
    07:00 +26°C° 0 mm 1 mps 747 mmHg 94%
    08:00 +27°C° 0 mm 1 mps 748 mmHg 92%
    09:00 +29°C° 0.1 mm 1 mps 748 mmHg 83%
    10:00 +30°C° 0.1 mm 1 mps 747 mmHg 74%
    11:00 +32°C° 0.1 mm 2 mps 747 mmHg 65%
    12:00 +32°C° 0.3 mm 2 mps 746 mmHg 66%
    13:00 +34°C° 0.3 mm 2 mps 745 mmHg 66%
    14:00 +34°C° 0.3 mm 2 mps 744 mmHg 67%
    15:00 +32°C° 0.5 mm 1 mps 744 mmHg 75%
    16:00 +30°C° 0.5 mm 1 mps 745 mmHg 83%
    17:00 +29°C° 0.5 mm 1 mps 745 mmHg 91%
    18:00 +28°C° 0.2 mm 1 mps 745 mmHg 93%
    19:00 +27°C° 0.2 mm 1 mps 746 mmHg 95%
    20:00 +26°C° 0.2 mm 1 mps 747 mmHg 97%
    21:00 +25°C° 0 mm 1 mps 747 mmHg 97%
    22:00 +25°C° 0 mm 1 mps 747 mmHg 98%
    23:00 +25°C° 0 mm 1 mps 748 mmHg 98%
    Show more